CAPE
0 0 0 0 0 0 16 4 0 61 0 0 0 12 0 0 0 0 370 576 604 636 1253 1345 1524 1706 1865 2000 1892 1785 2258 2407 2371 2300 2239 2138 1929 1769 1620 1342 1215 1380 1020 754
0 0 0 0 0 48 22 4 0 0 0 22 11 7 1 0 0 290 19 28 529 889 1024 1489 1558 1668 1891 1932 1938 1994 2164 2316 2319 2317 2123 1905 1829 1741 1592 1323 1114 907 681 416
0 0 0 0 0 0 0 160 114 212 43 14 38 3 0 0 63 205 217 264 252 219 980 1262 1631 1832 1989 2085 2151 2113 2137 2158 2402 2336 2216 2000 1449 1369 1261 1167 975 842 562 291
0 0 0 11 14 103 201 360 482 462 416 239 123 54 624 269 844 893 557 828 872 961 731 1217 1872 2188 2189 2553 2402 2343 2427 2389 2356 2298 1949 1705 1368 1278 1110 921 760 589 367 325
0 0 0 126 67 217 166 190 525 823 1044 1192 1120 1068 1017 1247 1506 1633 1821 1455 1620 1679 1644 1897 2075 2331 2379 2310 2608 2741 2659 2530 2397 2224 1983 1693 1364 1272 1071 755 554 385 311 264
13 10 17 25 6 0 69 9 37 277 573 988 1165 885 856 1142 1406 1536 1726 2009 2106 1983 2061 2204 2375 2386 2414 2443 2533 2577 2651 2666 2430 2164 1900 1719 1475 1202 959 680 503 311 425 332
1 81 64 0 0 83 27 8 0 0 15 179 378 350 291 657 871 1119 1284 1555 1802 2270 2463 2304 2696 2522 2439 2541 2543 2664 2789 2780 2545 2265 1979 1759 1471 1130 837 712 805 743 491 379
0 7 0 0 0 89 0 0 0 0 0 0 0 0 10 39 179 328 727 1146 1375 1948 2827 2853 2855 2651 2610 2679 2817 2867 2813 2682 2574 2356 2117 1900 1543 1180 856 778 926 745 402 271
9 0 0 0 0 0 0 0 0 0 0 0 0 0 0 0 3 1 27 472 641 1526 2289 3136 3139 2794 2667 2792 3202 2920 2761 2729 2649 2479 2175 1866 1571 1279 978 896 846 616 529 497
0 0 0 0 0 0 0 0 0 0 0 0 0 0 0 0 0 0 0 0 137 173 1075 2109 2439 3194 2891 3203 3168 3011 2793 2776 2729 2565 2260 1830 1545 1373 1009 827 818 555 550 611
0 0 0 0 0 0 0 0 0 0 0 0 0 0 0 0 0 0 0 0 0 22 6 263 1565 2412 3097 3145 3074 3014 2862 2781 2684 2504 2167 1859 1545 1520 1118 974 981 674 776 830
0 0 0 0 0 0 0 0 0 0 0 0 0 0 0 0 0 0 0 0 0 0 0 0 120 1014 1613 2315 2729 2511 2815 2790 2607 2441 2216 1880 1497 1580 1487 1168 1255 1121 721 850
0 0 0 0 0 0 0 0 0 0 0 0 0 0 0 0 0 0 0 0 0 0 0 0 0 0 241 1172 1237 1601 1526 2000 2224 2337 2310 1934 1456 1606 1584 1461 1064 969 850 585
0 0 0 0 0 0 0 0 0 0 0 0 0 0 0 0 0 0 0 0 0 0 0 0 0 0 0 0 106 730 752 706 971 1025 1016 718 490 335 333 538 684 806 546 405
0 0 0 0 0 0 0 0 0 0 0 0 0 0 0 0 0 0 0 0 0 0 0 0 0 0 0 0 0 0 28 101 477 605 172 95 0 0 10 8 70 92 212 178
0 0 0 0 0 0 0 0 0 0 0 0 0 0 0 0 0 0 0 0 0 0 0 0 0 0 0 0 0 0 0 0 140 164 457 351 143 4 0 0 11 1 0 0
0 0 0 0 0 0 0 0 0 3 0 0 0 0 0 0 0 0 0 0 0 0 0 0 0 0 0 0 0 0 0 0 0 48 121 250 363 184 104 39 69 0 0 0
0 1 0 0 0 0 0 0 0 0 0 0 0 0 0 0 0 0 0 0 0 0 0 0 0 0 0 0 0 0 0 0 0 0 0 3 0 0 51 129 49 11 0 0
1 1 0 2 0 0 0 0 2 1 2 2 1 1 1 1 2 2 0 1 0 0 0 0 1 0 0 0 0 0 0 0 0 0 0 0 0 0 0 0 0 0 0 0
10 9 0 0 0 0 0 0 5 4 2 2 2 2 3 0 0 1 1 3 4 0 0 0 0 0 0 0 0 0 0 0 0 0 0 0 0 0 0 5 23 6 0 6
9 8 4 0 0 0 0 0 0 1 3 3 7 8 9 8 5 1 2 3 0 5 5 4 0 0 1 0 0 0 0 0 0 0 0 0 0 0 0 0 0 0 0 0
5 13 5 2 0 0 0 0 0 0 1 4 2 2 1 6 0 2 0 5 13 14 20 21 8 4 7 2 1 0 0 0 0 0 0 1 10 0 0 0 0 0 0 0
23 28 21 1 0 0 0 0 0 0 0 1 8 4 3 3 4 5 3 1 1 0 0 1 6 5 2 0 1 2 3 0 0 0 0 0 2 0 11 9 1 0 0 0
16 25 15 0 0 0 0 0 0 0 0 0 6 4 5 3 1 4 2 2 1 3 2 0 0 0 2 1 0 0 4 0 0 0 0 0 0 0 0 0 0 0 0 3
26 30 16 4 0 0 0 0 0 0 0 1 0 0 1 2 4 2 5 3 2 3 2 1 2 1 1 0 2 3 0 1 5 3 0 0 0 0 0 0 0 0 0 0
32 30 0 0 4 7 3 0 0 0 0 0 0 0 0 1 6 3 2 3 2 2 4 5 5 4 1 10 19 22 22 37 14 3 0 2 0 3 3 0 0 0 0 0
14 0 0 2 0 7 0 0 0 0 0 0 0 0 0 0 0 1 2 2 3 2 2 3 3 6 5 4 3 1 0 0 3 6 4 3 1 10 3 6 1 0 0 0
CIN
0 0 0 0 0 0 -29 -20 0 -98 0 0 0 -184 0 0 0 0 -21 -16 -32 -34 -34 -57 -80 -103 -99 -116 -121 -117 -87 -56 -52 -66 -51 -39 -29 -41 -47 -35 -36 -26 -33 -34
0 0 0 0 0 -1 -28 -4 0 0 0 -103 -83 -124 -236 0 0 -35 -37 -30 -30 -29 -46 -76 -75 -89 -85 -105 -114 -98 -59 -65 -61 -64 -57 -41 -26 -32 -27 -33 -40 -31 -23 -23
0 0 0 0 0 0 0 -49 -31 -51 -45 -126 -65 -80 0 -1 -21 -23 -42 -43 -40 -44 -43 -56 -88 -104 -96 -89 -85 -68 -61 -59 -63 -57 -55 -47 -70 -44 -41 -37 -36 -27 -33 -29
0 0 0 -13 -70 -41 -105 -119 -103 -89 -82 -86 -80 -50 -29 -227 -20 -52 -50 -61 -66 -70 -70 -61 -94 -91 -91 -66 -56 -45 -46 -47 -59 -52 -71 -54 -69 -56 -54 -46 -35 -35 -39 -29
0 0 0 -31 -130 -114 -156 -227 -178 -159 -134 -75 -38 -58 -78 -81 -98 -130 -151 -120 -64 -67 -65 -89 -64 -84 -95 -84 -56 -46 -43 -59 -94 -96 -72 -65 -63 -66 -59 -41 -34 -41 -48 -42
-44 -2 -11 -152 -204 0 -118 -181 -308 -272 -236 -192 -152 -118 -164 -142 -154 -178 -185 -163 -145 -73 -43 -51 -67 -84 -93 -104 -78 -58 -65 -83 -102 -112 -109 -71 -68 -62 -43 -47 -45 -31 -28 -54
-40 -52 -124 0 0 -52 -51 -232 -45 0 -240 -341 -305 -325 -318 -258 -274 -260 -241 -223 -217 -150 -72 -41 -85 -76 -75 -84 -81 -86 -94 -92 -90 -103 -98 -88 -70 -59 -62 -57 -24 -20 -40 -63
0 -165 -11 0 0 -90 0 0 0 0 0 0 0 0 -146 -420 -383 -364 -310 -277 -263 -185 -131 -64 -68 -82 -67 -65 -72 -72 -75 -82 -81 -84 -87 -81 -75 -60 -67 -54 -42 -51 -74 -77
-9 0 0 0 0 0 0 0 0 0 0 0 0 0 0 0 -155 -50 -446 -358 -338 -215 -160 -108 -31 -42 -46 -60 -49 -46 -41 -48 -53 -47 -67 -73 -62 -63 -50 -28 -61 -106 -98 -66
0 0 0 0 0 0 0 0 0 0 0 0 0 0 0 0 0 0 0 0 -413 -381 -238 -164 -130 -39 -25 -35 -37 -26 -27 -25 -29 -29 -45 -50 -57 -49 -67 -61 -50 -114 -119 -83
0 0 0 0 0 0 0 0 0 0 0 0 0 0 0 0 0 0 0 0 0 -254 -444 -341 -213 -113 -21 -13 -18 -16 -18 -17 -21 -21 -39 -37 -52 -57 -98 -108 -82 -112 -152 -122
0 0 0 0 0 0 0 0 0 0 0 0 0 0 0 0 0 0 0 0 0 0 0 0 -381 -247 -162 -72 -2 -10 -8 -10 -16 -17 -8 -15 -34 -31 -40 -72 -62 -70 -89 -94
0 0 0 0 0 0 0 0 0 0 0 0 0 0 0 0 0 0 0 0 0 0 0 0 0 0 -335 -177 -147 -46 -8 -6 -6 -17 -9 -7 -39 -22 -27 -35 -57 -60 -79 -95
0 0 0 0 0 0 0 0 0 0 0 0 0 0 0 0 0 0 0 0 0 0 0 0 0 0 0 0 -269 -152 -88 -88 -57 -27 -7 -54 -53 -87 -83 -41 -20 -57 -121 -149
0 0 0 0 0 0 0 0 0 0 0 0 0 0 0 0 0 0 0 0 0 0 0 0 0 0 0 0 0 0 -176 -263 -127 -77 -10 -88 -38 0 -1 -15 -161 -172 -124 -145
0 0 0 0 0 0 0 0 0 0 0 0 0 0 0 0 0 0 0 0 0 0 0 0 0 0 0 0 0 0 0 0 -202 -237 -65 -131 -193 -144 0 0 -96 -67 0 0
0 0 0 0 0 0 0 0 0 0 -1 0 0 0 0 0 0 0 0 0 0 0 0 0 0 0 0 0 0 0 0 0 0 -179 -223 -160 -113 -158 -199 -285 -188 0 0 0
-1 -1 -1 -1 -2 0 0 0 0 0 0 0 0 0 0 0 0 0 0 0 0 0 0 0 0 0 0 0 0 0 0 0 0 0 0 -89 0 0 -285 -230 -276 -410 -36 0
-3 -4 0 -5 0 0 0 0 -1 -1 0 0 0 0 0 0 0 0 0 0 0 0 0 0 -10 -2 0 0 0 0 0 0 0 0 0 0 0 0 0 0 0 0 0 0
-10 -7 0 0 0 0 0 0 -2 -2 -2 0 0 0 0 0 0 0 0 0 0 0 0 0 0 0 0 0 0 0 0 0 0 0 0 0 0 0 0 -38 -211 -256 0 -421
-13 -10 -8 0 0 0 0 0 0 0 -2 -2 0 0 0 0 0 0 0 -3 0 -41 -31 -26 0 -5 -2 -2 0 0 0 0 0 0 0 0 0 0 0 0 0 0 0 0
-10 -4 -7 -11 0 0 0 0 -1 0 0 0 -1 0 0 0 0 0 0 0 0 -3 -3 -3 -10 -4 -17 -17 -22 -15 0 0 0 0 0 -6 -37 0 0 0 0 0 0 0
-14 -9 -12 -6 0 0 0 0 0 0 0 -1 0 0 0 0 0 0 0 0 0 0 0 -25 -20 -9 -12 0 -15 -45 -48 0 0 0 0 0 -4 -1 -32 -57 -26 0 0 0
-12 -24 -24 0 0 0 0 0 0 -1 -2 -1 -1 -1 0 0 0 0 0 0 0 0 0 0 0 -2 -13 -13 0 0 -45 -38 0 0 0 0 0 0 0 0 0 0 -17 -191
-19 -14 -13 -11 -3 0 0 0 0 0 0 0 -1 0 -1 0 0 0 0 0 0 0 0 0 0 -1 -2 -2 -6 -10 0 -32 -36 -43 -8 0 0 0 0 0 0 0 0 0
-18 -17 0 0 -10 -4 -18 0 0 0 0 0 0 0 0 -1 0 0 0 0 0 0 0 0 0 0 -46 -19 -7 -6 -12 -12 -16 -55 -4 -51 -6 -27 -11 0 0 0 0 0
-18 0 0 -17 0 -19 0 0 0 0 0 0 0 0 0 0 0 -1 0 0 0 0 0 0 0 0 0 0 -11 -7 0 0 -8 -43 -54 -89 -51 -27 -34 -38 -8 0 0 0
Wind_Speed
37 38 32 28 27 14 22 28 33 11 12 3 5 11 13 20 10 29 6 13 14 14 8 8 9 10 9 10 11 9 10 9 7 5 4 3 2 3 4 5 7 6 5 9
37 38 31 32 30 20 19 23 23 20 24 8 7 9 7 7 7 17 16 17 15 12 9 4 3 6 6 8 9 10 9 7 6 4 4 3 2 2 5 7 10 11 13 11
28 31 30 31 27 26 21 16 12 15 19 5 4 6 8 9 11 13 18 21 21 19 11 7 0 1 3 5 7 9 9 6 4 5 3 1 2 3 3 5 10 14 14 11
27 28 30 18 19 15 8 12 14 13 18 13 8 10 15 14 9 16 21 24 27 29 28 14 3 2 2 3 3 7 6 5 2 2 3 1 4 4 2 2 3 5 6 5
20 28 23 17 16 11 7 12 14 12 10 12 12 13 17 20 20 23 28 30 30 33 33 15 5 4 3 3 3 1 3 5 3 3 2 1 2 3 1 4 1 3 4 6
16 26 28 22 19 21 13 12 16 13 13 13 12 14 21 23 24 27 29 31 34 32 27 17 9 4 4 4 4 1 4 7 3 2 1 1 1 1 1 2 7 3 3 7
20 17 15 21 20 17 16 17 14 14 16 17 17 18 21 25 26 28 29 31 33 33 28 23 9 5 5 7 6 4 1 3 4 2 1 3 2 2 3 4 6 2 2 3
19 21 26 24 18 13 7 10 13 16 19 20 21 23 24 26 27 28 29 31 32 32 32 24 13 8 8 9 9 5 3 4 5 4 2 3 4 4 6 7 6 5 5 4
17 9 9 9 6 8 9 13 17 20 22 24 25 27 28 29 30 30 31 31 32 33 33 31 21 10 9 11 8 4 3 5 5 5 4 3 3 5 6 9 8 6 5 4
8 5 7 10 12 11 13 16 20 22 25 27 29 31 32 33 33 31 32 33 33 34 33 33 33 29 11 10 6 5 6 6 6 7 6 6 4 4 6 7 9 9 8 7
3 7 9 15 15 17 18 21 24 25 27 31 32 34 35 36 35 33 33 33 33 34 35 35 35 32 32 15 10 9 9 9 8 8 8 9 8 8 8 10 12 10 10 10
9 12 12 16 19 21 23 25 28 30 33 34 35 37 37 38 37 35 37 34 35 36 37 36 35 35 35 34 19 13 12 12 12 11 12 11 12 9 9 9 12 13 10 8
12 15 17 21 24 27 29 31 34 34 35 38 37 38 39 39 38 39 38 38 38 39 39 38 37 37 37 36 36 34 45 27 18 16 14 13 13 13 13 11 12 13 16 14
18 21 25 27 30 32 34 36 37 38 38 39 39 40 40 41 41 41 42 41 41 42 41 41 41 38 37 39 40 31 28 39 39 42 25 19 20 27 32 35 38 43 20 19
24 25 27 29 31 34 35 36 37 38 40 41 42 43 42 43 44 45 44 43 43 44 44 42 43 43 42 41 42 38 36 36 38 37 23 31 33 43 43 32 29 30 34 36
24 25 26 28 31 33 35 37 39 40 41 42 43 43 45 46 47 46 46 44 45 45 45 44 44 44 44 43 41 39 38 36 34 34 26 16 14 16 27 36 40 42 44 39
25 26 27 29 32 35 36 39 41 42 42 43 44 45 46 47 48 48 46 44 44 45 44 43 45 44 44 43 41 38 36 35 31 28 25 20 14 12 13 14 11 24 46 36
22 23 25 28 32 36 38 41 42 43 44 45 46 46 46 46 46 46 46 46 47 47 45 44 44 44 45 46 44 42 37 34 34 32 27 20 17 16 16 14 13 11 7 29
21 23 25 27 32 35 37 40 42 41 41 41 42 42 43 43 44 46 47 46 46 46 44 42 44 44 43 41 42 41 41 38 35 33 31 28 24 23 21 20 20 20 18 24
22 23 25 27 31 34 37 40 41 41 41 42 42 43 43 43 43 45 46 46 43 43 43 45 46 47 46 44 44 43 42 41 38 34 31 29 28 27 26 22 23 24 22 23
22 24 24 28 30 33 37 40 41 43 44 43 43 44 45 44 43 44 45 40 39 38 40 42 42 41 38 41 42 42 43 43 41 38 34 30 30 27 26 25 26 24 24 22
22 25 24 27 29 32 36 39 40 43 44 44 44 44 44 43 43 42 41 40 40 40 39 38 39 39 39 37 38 41 41 42 41 38 38 33 29 28 28 29 29 28 25 20
22 25 26 26 28 31 34 37 40 42 44 45 45 46 44 43 41 41 42 42 41 41 41 39 38 41 43 44 43 42 42 42 42 40 39 37 34 30 29 29 29 26 25 25
24 26 27 25 25 31 34 36 39 41 43 44 45 46 45 44 41 39 41 41 42 43 42 41 42 43 43 40 39 41 41 42 44 44 42 41 38 36 35 33 32 30 27 24
25 27 27 27 26 29 31 35 37 41 42 43 44 46 46 44 41 42 40 41 41 40 39 39 41 41 39 34 31 34 34 36 38 39 41 41 41 38 36 35 32 32 32 32
25 27 28 27 27 27 30 33 35 39 41 44 44 45 46 47 45 43 41 40 40 39 38 37 38 37 34 33 33 31 32 32 32 34 37 37 37 39 40 40 39 37 38 39
25 29 28 28 29 29 30 31 32 36 38 40 43 45 44 45 47 45 43 40 39 37 37 37 36 36 35 34 33 33 34 34 34 35 36 37 38 39 41 40 39 38 38 37
Wind_Direction
251 248 267 275 278 289 282 276 280 291 313 298 329 152 104 233 348 319 65 73 63 62 108 123 141 157 159 168 172 174 172 170 178 176 168 169 194 233 272 278 292 297 292 292
250 250 264 258 275 284 289 284 294 303 294 291 49 27 347 104 38 354 28 26 16 38 57 87 132 169 176 176 176 173 174 178 181 186 183 197 245 226 283 287 291 298 300 287
261 256 262 267 281 271 286 326 333 344 328 52 9 351 356 61 357 324 339 338 345 6 11 3 179 220 197 187 173 180 186 192 202 196 205 226 359 340 283 289 298 294 295 281
259 254 256 277 312 301 334 329 344 10 31 27 36 75 40 24 309 324 330 339 337 336 339 339 349 7 7 351 171 174 188 193 231 226 219 250 350 350 325 220 236 291 279 231
254 249 258 272 323 324 338 327 336 334 338 9 46 22 352 347 346 348 341 337 340 339 334 356 51 45 30 7 359 43 182 190 218 199 218 247 340 347 348 178 348 162 168 183
261 254 255 263 291 288 304 307 320 325 330 330 344 333 331 334 335 334 337 338 336 338 348 360 18 56 23 356 355 325 184 173 156 184 182 197 353 16 54 102 146 127 173 169
267 269 278 278 285 291 272 274 321 324 324 331 338 333 329 332 330 332 331 332 333 328 329 349 15 11 345 337 328 326 238 183 168 192 203 156 114 73 118 126 131 123 167 197
270 264 264 288 290 278 302 314 319 331 334 332 337 336 330 330 332 330 327 326 328 326 326 339 4 359 333 320 320 316 289 209 184 190 234 170 141 128 142 142 141 142 150 173
270 263 281 318 352 354 342 314 321 321 322 323 324 322 323 320 322 323 322 327 326 321 323 322 330 350 341 324 316 298 262 227 218 209 229 226 175 147 147 156 156 155 163 182
270 288 328 334 337 339 332 317 326 324 322 317 316 316 314 314 315 318 320 320 323 321 315 310 305 300 329 329 314 271 235 226 227 220 234 253 249 187 168 172 172 165 165 174
311 311 325 330 331 327 325 324 318 318 318 312 313 312 311 310 312 316 316 316 317 317 318 314 310 309 303 317 309 287 257 246 232 247 245 243 240 218 199 188 182 185 179 178
298 314 324 323 328 325 318 315 315 311 307 309 310 308 310 310 310 314 310 312 311 309 309 314 315 308 305 303 301 285 259 248 249 252 263 255 263 255 221 222 201 197 202 203
316 315 328 322 318 316 313 312 312 312 310 307 309 310 309 309 310 310 310 309 308 305 302 307 309 309 308 302 302 298 270 283 271 249 251 258 259 269 278 260 249 223 209 208
326 322 316 320 311 314 312 311 310 308 309 311 312 313 312 310 309 308 306 306 304 301 302 301 301 303 307 304 303 314 312 290 288 284 269 277 288 291 289 280 269 252 268 215
319 320 316 316 317 316 316 315 313 313 312 310 310 310 311 310 308 307 306 305 302 300 298 300 298 297 300 302 303 309 310 308 306 308 306 282 276 293 286 289 293 286 281 273
317 321 324 324 321 321 320 320 317 316 315 314 312 311 309 306 305 304 303 305 303 299 297 297 297 295 298 297 299 302 306 310 313 311 318 314 299 306 290 294 289 284 274 271
315 317 322 322 325 324 325 323 320 318 317 316 314 312 310 308 306 304 303 303 302 301 301 298 295 295 295 296 296 296 300 304 309 317 314 312 304 293 278 282 309 319 266 269
324 328 330 329 329 328 328 327 324 321 318 316 315 315 313 311 309 308 306 304 300 297 295 297 296 294 291 290 292 292 294 297 300 302 311 315 307 304 297 290 281 279 241 288
327 334 336 339 338 335 334 333 331 328 327 327 326 324 320 317 314 310 306 303 299 296 295 295 292 294 292 292 292 295 293 292 294 295 298 304 307 306 304 298 292 296 296 303
333 336 340 340 341 344 341 341 341 338 333 328 325 323 323 322 320 317 314 305 301 297 296 291 291 287 289 292 289 289 291 292 292 290 290 292 298 300 302 299 298 294 292 300
330 333 340 343 345 347 347 345 343 340 337 333 328 325 321 318 315 312 312 320 309 305 301 293 290 293 295 289 292 291 288 287 289 293 291 289 290 293 296 298 300 300 298 293
338 340 345 345 346 347 347 347 348 345 343 341 338 333 324 320 319 317 317 318 319 308 307 302 295 293 293 295 293 291 291 289 289 291 290 293 291 293 295 295 296 300 306 301
349 346 348 348 350 350 350 350 349 347 345 343 341 338 334 330 327 323 320 318 316 313 309 306 302 295 292 291 291 290 288 288 288 288 290 293 293 294 293 296 299 299 298 297
352 352 348 352 356 352 351 353 353 353 351 349 348 345 340 336 333 332 326 321 318 313 309 305 299 295 293 296 295 291 291 289 286 286 287 288 291 290 290 291 293 295 299 302
357 355 353 349 355 354 354 353 353 354 353 351 350 352 350 345 338 329 330 330 324 322 321 320 312 300 301 304 303 302 297 296 293 291 289 288 287 293 290 288 288 291 292 294
4 1 360 359 359 358 355 354 355 354 354 354 353 352 352 352 348 343 336 332 333 330 330 328 325 326 322 314 310 309 309 307 306 304 298 294 292 288 287 288 287 286 286 285
7 3 2 1 1 1 360 358 358 357 360 358 357 357 355 355 356 353 348 344 341 339 338 335 334 331 327 324 321 316 313 313 309 304 303 304 297 289 285 286 287 288 286 285